Regional Weather Roundup
Issued by NWS

Home | Current Version | Previous Version | Text Only | Print | Product List | Glossary Off
Versions: 1 2 3 4 5 6 7 8 9 10 11 12 13 14 15 16 17 18 19 20 21 22 23 24 25 26 27 28 29 30 31 32 33 34 35 36 37 38 39 40 41 42 43 44 45 46 47 48 49 50

487
ASUS43 KLMK 211810
RWRKY
KENTUCKY REGIONAL WEATHER ROUNDUP
NATIONAL WEATHER SERVICE LOUISVILLE KY
200 PM EDT MON MAY 21 2018

NOTE "FAIR" INDICATES FEW OR NO CLOUDS BELOW 12,000 FEET
WITH NO SIGNIFICANT WEATHER AND/OR OBSTRUCTIONS TO VISIBILITY.

KYZ001>023-026-027-061>063-070>075-211900-
WESTERN AND SOUTH CENTRAL KENTUCKY

CITY           SKY/WX    TMP DP  RH WIND       PRES   REMARKS
PADUCAH        CLOUDY    77  69  76 W5        30.08S
HENDERSON      NOT AVBL
OWENSBORO      FAIR      84  70  62 SE12      30.07F
HOPKINSVILLE   PTSUNNY   79  68  68 SE12G17   30.08F
BOWLING GREEN  FAIR      82  70  66 S8        30.10F
GLASGOW        PTSUNNY   84  67  56 SE7       30.11F
$$

KYZ024-025-028>034-038-045-046-053-211900-
NORTH CENTRAL KENTUCKY

CITY           SKY/WX    TMP DP  RH WIND       PRES   REMARKS
LOUISVILLE/SDF PTSUNNY   86  65  49 S7        30.08F
LOUISVILLE/LOU FAIR      84  67  56 S9        30.09F
FORT KNOX      PTSUNNY   84  66  53 SE7       30.10F
$$

KYZ035>037-039>044-047>052-055>060-089>105-211900-
NORTHEAST KENTUCKY

CITY           SKY/WX    TMP DP  RH WIND       PRES   REMARKS
LEXINGTON      FAIR      83  66  56 VRB5      30.13F
COVINGTON      FAIR      83  63  50 VRB5      30.10F
FRANKFORT      FAIR      84  62  47 S6        30.10F
$$

KYZ054-064>069-076>088-106>120-211900-
SOUTHEAST KENTUCKY

CITY           SKY/WX    TMP DP  RH WIND       PRES   REMARKS
JACKSON        FAIR      81  65  58 CALM      30.13F
LONDON         FAIR      81  65  58 VRB5      30.13F
SOMERSET       FAIR      81  64  57 MISG      30.13F
MIDDLESBORO    FAIR      84  66  54 S5        30.14F
MONTICELLO     FAIR      83  66  56 NE8       30.14F
$$





USA.gov is the U.S. government's official web portal to all federal, state and local government web resources and services.